Location: Home
(42.5358°N, 72.7383°W)
Time: 18:49:10
(UTC-05:00)

Transit 2A Rocket - Visible Passes

Search period start: 29 November 2021 00:00
Search period end: 09 December 2021 00:00
Orbit: 584 x 918 km, 66.7° (Epoch: 29 November)

Date Brightness Start Highest point End Pass type
(mag) Time Alt. Az. Time Alt. Az. Time Alt. Az.
29 Nov 5.4 16:54:43 10° NNW 17:00:46 59° NE 17:06:27 10° SE visible
29 Nov 7.5 18:38:14 10° NW 18:42:55 24° WSW 18:47:23 10° SSW visible
30 Nov 6.7 17:54:57 10° NW 18:00:32 40° WSW 18:05:47 10° S visible
01 Dec 5.8 17:12:00 10° NW 17:18:02 66° WSW 17:23:39 10° SSE visible
02 Dec 8.6 06:07:33 10° SE 06:09:54 13° E 06:12:20 10° ENE visible
02 Dec 8.2 18:13:32 10° WNW 18:17:13 17° WSW 18:20:45 10° SW visible
03 Dec 7.5 17:29:52 10° NW 17:34:55 29° WSW 17:39:41 10° SSW visible
04 Dec 7.4 06:21:36 10° S 06:26:28 31° ESE 06:31:38 10° NE visible
04 Dec 6.5 16:46:43 10° NW 16:52:29 48° WSW 16:57:52 10° S visible
05 Dec 8.2 05:40:22 10° SE 05:44:09 19° ESE 05:48:05 10° ENE visible
05 Dec 8.7 17:49:38 10° W 17:51:27 11° W 17:53:14 10° WSW visible
06 Dec 8.8 05:01:35 10° ESE 05:01:56 10° E 05:02:18 10° E visible
06 Dec 8.2 17:04:58 10° WNW 17:09:13 21° WSW 17:13:16 10° SSW visible
07 Dec 6.6 05:55:33 10° S 06:00:50 43° ESE 06:06:30 10° NE visible
08 Dec 7.5 05:13:51 10° SSE 05:18:26 26° ESE 05:23:18 10° NE visible
